Flight Track Log - Related Links

Times and Time Zones

All times are in EDT time to prevent confusion due to time zone crossing. See the THY2462 flight status page for this flight to view local times or setup timezone preferences in your user account.

Time Position Orientation Groundspeed Altitude Reporting Facility
EDT Latitude Longitude Course Direction KTS MPH feet Rate Location/Type
Wed 07:38:00 AM 40.7130 29.2910 126° Southeast  Level Estimated
Wed 07:39:00 AM 40.6467 29.4079 127° Southeast  Level Estimated
Wed 07:40:00 AM 40.5803 29.5245 127° Southeast  Level Estimated
Wed 07:41:00 AM 40.5139 29.6410 127° Southeast  Level Estimated
Wed 07:42:00 AM 40.4472 29.7572 127° Southeast  Level Estimated
Wed 07:43:00 AM 40.3805 29.8731 127° Southeast  Level Estimated
Wed 07:44:00 AM 40.3136 29.9889 127° Southeast  Level Estimated
Wed 07:45:00 AM 40.2467 30.1044 127° Southeast  Level Estimated
Wed 07:46:00 AM 40.1796 30.2197 127° Southeast  Level Estimated
Wed 07:47:00 AM 40.1124 30.3347 127° Southeast  Level Estimated
Wed 07:48:00 AM 40.0451 30.4495 127° Southeast  Level Estimated
Wed 07:49:00 AM 39.9777 30.5641 127° Southeast  Level Estimated
Wed 07:50:00 AM 39.9101 30.6785 128° Southeast  Level Estimated
Wed 07:51:00 AM 39.8425 30.7926 128° Southeast  Level Estimated
Wed 07:52:00 AM 39.7747 30.9065 128° Southeast  Level Estimated
Wed 07:53:00 AM 39.7069 31.0202 128° Southeast  Level Estimated
Wed 07:54:00 AM 39.6389 31.1337 128° Southeast  Level Estimated
Wed 07:55:00 AM 39.5708 31.2470 128° Southeast  Level Estimated
Wed 07:56:00 AM 39.5026 31.3600 128° Southeast  Level Estimated
Wed 07:57:00 AM 39.4343 31.4728 128° Southeast  Level Estimated
Wed 07:58:00 AM 39.3659 31.5854 128° Southeast  Level Estimated
Wed 07:59:00 AM 39.2973 31.6977 128° Southeast  Level Estimated
Wed 08:00:00 AM 39.2287 31.8099 128° Southeast  Level Estimated
Wed 08:01:00 AM 39.1600 31.9218 128° Southeast  Level Estimated
Wed 08:02:00 AM 39.0911 32.0335 128° Southeast  Level Estimated
Wed 08:03:00 AM 39.0222 32.1450 129° Southeast  Level Estimated
Wed 08:04:00 AM 38.9531 32.2562 129° Southeast  Level Estimated
Wed 08:05:00 AM 38.8839 32.3673 129° Southeast  Level Estimated
Wed 08:06:00 AM 38.8147 32.4781 129° Southeast  Level Estimated
Wed 08:07:00 AM 38.7453 32.5887 129° Southeast  Level Estimated
Wed 08:08:00 AM 38.6758 32.6992 129° Southeast  Level Estimated
Wed 08:09:00 AM 38.6063 32.8093 129° Southeast  Level Estimated
Wed 08:10:00 AM 38.5366 32.9193 129° Southeast  Level Estimated
Wed 08:11:00 AM 38.4668 33.0291 129° Southeast  Level Estimated
Wed 08:12:00 AM 38.3969 33.1386 129° Southeast  Level Estimated
Wed 08:13:00 AM 38.3269 33.2480 129° Southeast  Level Estimated
Wed 08:14:00 AM 38.2568 33.3571 129° Southeast  Level Estimated
Wed 08:15:00 AM 38.1866 33.4660 129° Southeast  Level Estimated
Wed 08:16:00 AM 38.1163 33.5747 129° Southeast  Level Estimated
Wed 08:17:00 AM 38.0459 33.6832 129° Southeast  Level Estimated
Wed 08:18:00 AM 37.9754 33.7915 130° Southeast  Level Estimated
Wed 08:19:00 AM 37.9049 33.8996 130° Southeast  Level Estimated
Wed 08:20:00 AM 37.8342 34.0075 130° Southeast  Level Estimated
Wed 08:21:00 AM 37.7634 34.1151 130° Southeast  Level Estimated
Wed 08:22:00 AM 37.6925 34.2226 130° Southeast  Level Estimated
Wed 08:23:00 AM 37.6215 34.3299 130° Southeast  Level Estimated
Wed 08:24:00 AM 37.5504 34.4369 130° Southeast  Level Estimated
Wed 08:25:00 AM 37.4792 34.5438 130° Southeast  Level Estimated
Wed 08:26:00 AM 37.4080 34.6504 130° Southeast  Level Estimated
Wed 08:27:00 AM 37.3366 34.7568 130° Southeast  Level Estimated
Wed 08:28:00 AM 37.2651 34.8631 130° Southeast  Level Estimated
Wed 08:29:00 AM 37.1936 34.9691 130° Southeast  Level Estimated
Wed 08:30:00 AM 37.1219 35.0750 130° Southeast  Level Estimated
Wed 08:31:00 AM 37.0502 35.1806 130° Southeast  Level Estimated
Wed 08:32:00 AM 36.9822 35.2804 130° Southeast  Level Estimated
Wed 08:33:00 AM 36.9822 35.2804 202° Southwest  Level Estimated
Wed 08:34:00 AM 36.9822 35.2804 202° Southwest  Level Estimated
Wed 08:35:00 AM 36.9822 35.2804 202° Southwest  Level Estimated
Wed 08:36:00 AM 36.9822 35.2804 202° Southwest  Level Estimated
Wed 08:37:00 AM 36.9822 35.2804 202° Southwest  Level Estimated
Wed 08:38:00 AM 36.9822 35.2804 202° Southwest  Level Estimated
Wed 08:39:00 AM 36.9822 35.2804 202° Southwest  Level Estimated
Wed 08:40:00 AM 36.9822 35.2804 202° Southwest  Level Estimated
Wed 08:41:00 AM 36.9822 35.2804 202° Southwest  Level Estimated
Wed 08:42:00 AM 36.9822 35.2804 202° Southwest  Level Estimated
Wed 08:43:00 AM 36.9822 35.2804 202° Southwest  Level Estimated
Wed 08:44:00 AM 36.9822 35.2804 202° Southwest  Level Estimated
Wed 08:45:00 AM 36.9822 35.2804 202° Southwest  Level Estimated
Wed 08:46:00 AM 36.9822 35.2804 202° Southwest  Level Estimated
Wed 08:47:00 AM 36.9822 35.2804 202° Southwest  Level Estimated
Wed 08:48:00 AM 36.9822 35.2804 202° Southwest  Level Estimated

Login

Don't have an account? Register now (free) for customized features, flight alerts, and more!